Location: Clegg Observatory
(38.9178°N, 78.6069°W)
Time: 21:31:35
(UTC-04:00)

Cosmos 1151 Rocket - Visible Passes

Search period start: 16 September 2014 00:00
Search period end: 26 September 2014 00:00
Orbit: 594 x 619 km, 82.5° (Epoch: 16 September)

Date Brightness Start Highest point End Pass type
(mag) Time Alt. Az. Time Alt. Az. Time Alt. Az.
20 Sep 6.0 22:18:50 10° N 22:18:50 10° N 22:18:51 10° N visible
21 Sep 6.1 22:31:47 10° NNW 22:31:47 10° NNW 22:31:52 10° NNW visible
22 Sep 5.4 21:07:47 11° NNE 21:07:47 11° NNE 21:07:58 10° NNE visible
23 Sep 5.1 21:20:32 17° NNE 21:20:32 17° NNE 21:21:35 10° NNE visible
24 Sep 4.8 21:33:08 25° N 21:33:08 25° N 21:34:59 10° N visible
25 Sep 5.0 20:08:41 12° ENE 20:08:41 12° ENE 20:09:25 10° NE visible
25 Sep 4.7 21:45:29 30° NW 21:45:29 30° NW 21:48:10 10° N visible
